Chester, CT

5:03 AM EST on December 07, 2019 (GMT -0500)
Chester

Weather History for KSNC - August, 2019

Change the Weather History Date:

Wednesday, August 28, 2019

  Actual Average (KHVN) Record (KHVN)
Temperature  
Mean Temperature 67 °F -  
Max Temperature 75 °F 76 °F 91 °F (1980)
Min Temperature 59 °F 61 °F 53 °F (1986)
Cooling Degree Days 2    
Growing Degree Days 17 (Base 50)    
Moisture  
Dew Point 65 °F    
Average Humidity 93    
Maximum Humidity 100    
Minimum Humidity 73    
Precipitation  
Precipitation 0.00 in - - ()
Sea Level Pressure  
Sea Level Pressure 29.92 in    
Wind  
Wind Speed 1 mph ()    
Max Wind Speed 7 mph    
Max Gust Speed -    
Visibility 6.6 miles    
Events Fog , Rain    
Averages and records for this station are not official NWS values.
T = Trace of Precipitation, MM = Missing Value Source: Averaged Metar Reports

Daily Weather History Graph

Daily Weather History Graph

Search for Another Location

Airport or City:

Astronomy

Aug. 28, 2019 Rise Set
Actual Time 6:12 AM EDT 7:29 PM EDT
Civil Twilight 5:43 AM EDT 7:58 PM EDT
Nautical Twilight 5:08 AM EDT 8:32 PM EDT
Astronomical Twilight 4:32 AM EDT 9:08 PM EDT
Moon 3:38 AM EDT (8/28) 6:41 PM EDT (8/28)
Length of Visible Light 14h 15m
Length of Day
13h 17m
Waning Crescent, 5% of the Moon is Illuminated
Aug 28
Waning Crescent
Aug 30
New
Sep 5
First Quarter
Sep 14
Full
Sep 21
Last Quarter

Hourly Weather History & Observations

Time (EDT) Temp. Dew Point Humidity Pressure Visibility Wind Dir Wind Speed Gust Speed Precip Events Conditions
12:15 AM 62.6 °F 60.8 °F 94% 30.04 in 10.0 mi Calm Calm - N/A   Clear
12:35 AM 62.6 °F 59.0 °F 88% 30.04 in 10.0 mi Calm Calm - N/A   Clear
12:55 AM 60.8 °F 59.0 °F 94% 30.03 in 8.0 mi Calm Calm - N/A   Clear
1:15 AM 60.8 °F 59.0 °F 94% 30.02 in 8.0 mi Calm Calm - N/A   Clear
1:35 AM 59.0 °F 59.0 °F 100% 30.02 in 10.0 mi Calm Calm - N/A   Clear
1:55 AM 59.0 °F 59.0 °F 100% 30.02 in 9.0 mi Calm Calm - N/A   Clear
2:15 AM 59.0 °F 59.0 °F 100% 30.01 in 7.0 mi Calm Calm - N/A   Clear
2:35 AM 59.0 °F 59.0 °F 100% 30.01 in 9.0 mi Calm Calm - N/A   Clear
2:55 AM 60.8 °F 59.0 °F 94% 30.01 in 10.0 mi Calm Calm - N/A   Clear
3:15 AM 60.8 °F 59.0 °F 94% 30.00 in 10.0 mi Calm Calm - N/A   Clear
3:35 AM 60.8 °F 59.0 °F 94% 30.00 in 10.0 mi Calm Calm - N/A   Clear
3:55 AM 60.8 °F 59.0 °F 94% 29.99 in 10.0 mi Calm Calm - N/A   Clear
4:15 AM 60.8 °F 59.0 °F 94% 29.99 in 10.0 mi Calm Calm - N/A   Mostly Cloudy
4:35 AM 60.8 °F 59.0 °F 94% 29.98 in 10.0 mi Calm Calm - N/A   Overcast
4:55 AM 60.8 °F 59.0 °F 94% 29.98 in 8.0 mi Calm Calm - N/A   Overcast
5:15 AM 62.6 °F 59.0 °F 88% 29.98 in 9.0 mi Calm Calm - N/A   Overcast
5:35 AM 62.6 °F 60.8 °F 94% 29.98 in 8.0 mi Calm Calm - N/A   Overcast
5:55 AM 62.6 °F 60.8 °F 94% 29.98 in 10.0 mi Calm Calm - N/A   Overcast
6:15 AM 60.8 °F 60.8 °F 100% 29.97 in 10.0 mi Calm Calm - N/A   Scattered Clouds
6:35 AM 60.8 °F 60.8 °F 100% 29.97 in 9.0 mi Calm Calm - N/A   Partly Cloudy
6:55 AM 60.8 °F 60.8 °F 100% 29.97 in 10.0 mi Calm Calm - N/A   Clear
7:35 AM 62.6 °F 60.8 °F 94% 29.98 in 10.0 mi Calm Calm - N/A   Clear
7:55 AM 64.4 °F 60.8 °F 88% 29.98 in 10.0 mi Calm Calm - N/A   Partly Cloudy
8:15 AM 66.2 °F 62.6 °F 88% 29.97 in 10.0 mi Calm Calm - N/A   Scattered Clouds
8:35 AM 69.8 °F 64.4 °F 83% 29.97 in 10.0 mi Calm Calm - N/A   Clear
8:55 AM 69.8 °F 64.4 °F 83% 29.97 in 10.0 mi East 4.6 mph - N/A   Partly Cloudy
9:15 AM 69.8 °F 64.4 °F 83% 29.97 in 10.0 mi East 5.8 mph - N/A   Clear
9:35 AM 69.8 °F 64.4 °F 83% 29.97 in 10.0 mi ESE 3.5 mph - N/A   Scattered Clouds
9:55 AM 69.8 °F 62.6 °F 78% 29.97 in 10.0 mi Variable 3.5 mph - N/A   Mostly Cloudy
10:15 AM 71.6 °F 62.6 °F 73% 29.97 in 10.0 mi Calm Calm - N/A   Mostly Cloudy
10:35 AM 71.6 °F 64.4 °F 78% 29.96 in 10.0 mi Calm Calm - N/A   Overcast
10:55 AM 71.6 °F 64.4 °F 78% 29.96 in 7.0 mi ESE 5.8 mph - N/A   Mostly Cloudy
11:15 AM 71.6 °F 64.4 °F 78% 29.94 in 8.0 mi Calm Calm - N/A   Mostly Cloudy
11:35 AM 75.2 °F 66.2 °F 73% 29.94 in 10.0 mi NE 4.6 mph - N/A   Mostly Cloudy
11:55 AM 73.4 °F 66.2 °F 78% 29.93 in 10.0 mi Variable 5.8 mph - N/A   Mostly Cloudy
12:15 PM 73.4 °F 66.2 °F 78% 29.92 in 9.0 mi ENE 5.8 mph - N/A   Mostly Cloudy
12:35 PM 73.4 °F 66.2 °F 78% 29.92 in 5.0 mi ENE 6.9 mph - N/A   Light Drizzle
12:55 PM 73.4 °F 66.2 °F 78% 29.91 in 8.0 mi ESE 5.8 mph - N/A   Overcast
1:15 PM 71.6 °F 68.0 °F 88% 29.91 in 6.0 mi East 5.8 mph - N/A   Haze
1:35 PM 69.8 °F 68.0 °F 94% 29.89 in 1.5 mi Calm Calm - N/A Rain Light Rain
1:55 PM 69.8 °F 69.8 °F 100% 29.89 in 1.2 mi ENE 4.6 mph - N/A Rain Light Rain
2:15 PM 69.8 °F 69.8 °F 100% 29.88 in 1.0 mi ENE 3.5 mph - N/A Rain Rain
2:35 PM 69.8 °F 69.8 °F 100% 29.87 in 1.0 mi ENE 5.8 mph - N/A Rain Heavy Rain
2:55 PM 69.8 °F 69.8 °F 100% 29.87 in 0.8 mi ENE 5.8 mph - N/A Rain Heavy Rain
3:55 PM 69.8 °F 69.8 °F 100% 29.85 in 7.0 mi Calm Calm - N/A Rain Light Rain
4:15 PM 69.8 °F 69.8 °F 100% 29.84 in 2.0 mi Calm Calm - N/A Rain Light Rain
4:35 PM 69.8 °F 69.8 °F 100% 29.84 in 5.0 mi Calm Calm - N/A Rain Light Rain
4:55 PM 69.8 °F 69.8 °F 100% 29.83 in 1.2 mi Calm Calm - N/A Rain Light Rain
5:15 PM 69.8 °F 69.8 °F 100% 29.82 in 0.8 mi Calm Calm - N/A Rain Light Rain
5:35 PM 69.8 °F 69.8 °F 100% 29.81 in 1.0 mi ESE 3.5 mph - N/A   Light Drizzle
5:55 PM 71.6 °F 71.6 °F 100% 29.82 in 0.8 mi Calm Calm - N/A   Light Drizzle
6:15 PM 71.6 °F 71.6 °F 100% 29.81 in 0.2 mi Calm Calm - N/A Rain Light Rain
6:35 PM 71.6 °F 71.6 °F 100% 29.81 in 0.8 mi Calm Calm - N/A   Overcast
6:55 PM 71.6 °F 71.6 °F 100% 29.81 in 0.2 mi SSE 5.8 mph - N/A Fog Fog
7:15 PM 73.4 °F 73.4 °F 100% 29.81 in 0.2 mi SSE 5.8 mph - N/A Fog Fog
8:15 PM 73.4 °F 73.4 °F 100% 29.81 in 0.2 mi South 4.6 mph - N/A Fog Fog
8:35 PM 71.6 °F 71.6 °F 100% 29.82 in 0.8 mi NW 5.8 mph - N/A Rain Rain
8:55 PM 71.6 °F 71.6 °F 100% 29.82 in 1.2 mi NNW 5.8 mph - N/A Rain Heavy Rain
9:15 PM 69.8 °F 69.8 °F 100% 29.82 in 2.5 mi NNW 6.9 mph - N/A Rain Rain
9:35 PM 69.8 °F 69.8 °F 100% 29.82 in 9.0 mi North 4.6 mph - N/A Rain Light Rain
9:55 PM 69.8 °F 69.8 °F 100% 29.81 in 10.0 mi North 5.8 mph - N/A   Overcast
10:15 PM 69.8 °F 69.8 °F 100% 29.81 in 10.0 mi NNE 4.6 mph - N/A   Overcast
10:35 PM 69.8 °F 69.8 °F 100% 29.81 in 10.0 mi North 4.6 mph - N/A   Overcast
10:55 PM 69.8 °F 69.8 °F 100% 29.81 in 3.0 mi NNW 3.5 mph - N/A   Overcast
11:15 PM 69.8 °F 69.8 °F 100% 29.81 in 0.5 mi NW 5.8 mph - N/A Fog Fog
11:35 PM 69.8 °F 69.8 °F 100% 29.81 in 2.0 mi NNW 5.8 mph - N/A   Overcast
11:55 PM 69.8 °F 69.8 °F 100% 29.82 in 9.0 mi NNW 5.8 mph - N/A   Overcast